| time (UTC) | temp C | wind direction | speed KPH | gust KPH | rain 1hr cm | rain 24hr cm | rain mn cm | humidity % | barometer mb |
| 20260901110109 | 25 | 0 | 0.0 | 0.0 | 0.00 | 2.84 | 0.00 | 91 | 1015.1 |
| 20260901104606 | 25 | 0 | 0.0 | 0.0 | 0.00 | 2.84 | 0.00 | 91 | 1015.0 |
| 20260901103105 | 25 | 0 | 0.0 | 0.0 | 0.00 | 2.84 | 0.00 | 91 | 1015.1 |
| 20260901101612 | 25 | 0 | 0.0 | 0.0 | 0.00 | 2.84 | 0.00 | 90 | 1015.2 |
| 20260901100107 | 26 | 0 | 0.0 | 0.0 | 0.00 | 2.84 | 0.00 | 90 | 1015.0 |
| 20260901094603 | 26 | 0 | 0.0 | 0.0 | 0.00 | 2.84 | 0.00 | 89 | 1015.1 |
| 20260901093100 | 26 | 0 | 0.0 | 0.0 | 0.00 | 2.84 | 0.00 | 89 | 1015.2 |
| 20260901091604 | 26 | 0 | 0.0 | 1.6 | 0.00 | 2.84 | 0.00 | 89 | 1015.4 |
| 20260901090104 | 26 | 0 | 0.0 | 3.2 | 0.00 | 2.84 | 0.00 | 90 | 1015.5 |
| 20260901084606 | 26 | 324 | 1.6 | 3.2 | 0.00 | 2.84 | 0.00 | 91 | 1015.5 |
| 20260901083057 | 26 | 0 | 0.0 | 3.2 | 0.00 | 2.84 | 0.00 | 92 | 1015.3 |
| 20260901081559 | 25 | 0 | 0.0 | 3.2 | 0.00 | 2.84 | 0.00 | 92 | 1015.4 |
| 20260901080105 | 25 | 336 | 0.0 | 3.2 | 0.00 | 2.84 | 0.00 | 93 | 1015.3 |
| 20260901074606 | 25 | 0 | 0.0 | 0.0 | 0.00 | 2.84 | 0.00 | 93 | 1015.3 |
| 20260901073101 | 25 | 0 | 0.0 | 0.0 | 0.00 | 2.84 | 0.00 | 93 | 1015.4 |
| 20260901071606 | 25 | 0 | 0.0 | 3.2 | 0.00 | 2.84 | 0.00 | 92 | 1015.6 |
| 20260901070109 | 25 | 0 | 0.0 | 3.2 | 0.00 | 2.84 | 0.00 | 92 | 1015.8 |
| 20260901064604 | 26 | 0 | 0.0 | 0.0 | 0.00 | 2.84 | 0.00 | 92 | 1015.6 |
| 20260901063056 | 26 | 0 | 0.0 | 0.0 | 0.00 | 2.84 | 0.00 | 92 | 1015.6 |
| 20260901061605 | 26 | 0 | 0.0 | 0.0 | 0.00 | 2.84 | 0.00 | 92 | 1015.9 |
| 20260901060112 | 26 | 0 | 0.0 | 0.0 | 0.00 | 2.84 | 0.00 | 92 | 1015.9 |
| 20260901054601 | 26 | 0 | 0.0 | 0.0 | 0.00 | 2.84 | 0.00 | 91 | 1015.9 |
| 20260901053111 | 26 | 0 | 0.0 | 0.0 | 0.00 | 2.84 | 0.00 | 92 | 1015.8 |
| 20260901051608 | 26 | 0 | 0.0 | 0.0 | 0.00 | 2.84 | 0.00 | 91 | 1015.8 |
| 20260901050107 | 26 | 0 | 0.0 | 0.0 | 0.00 | 2.84 | 0.00 | 91 | 1015.6 |
| 20260901044631 | 26 | 0 | 0.0 | 0.0 | 0.00 | 2.84 | 2.84 | 91 | 1015.5 |
| 20260901043056 | 26 | 0 | 0.0 | 0.0 | 0.00 | 2.84 | 2.84 | 90 | 1015.6 |
| 20260901041602 | 26 | 0 | 0.0 | 0.0 | 0.00 | 2.84 | 2.84 | 90 | 1015.6 |
| 20260901040105 | 26 | 0 | 0.0 | 0.0 | 0.00 | 2.84 | 2.84 | 90 | 1015.6 |
| 20260901034606 | 26 | 0 | 0.0 | 0.0 | 0.00 | 2.84 | 2.84 | 89 | 1015.6 |
| 20260901033107 | 26 | 0 | 0.0 | 0.0 | 0.00 | 2.84 | 2.84 | 89 | 1015.7 |
| 20260901031559 | 27 | 0 | 0.0 | 0.0 | 0.00 | 2.84 | 2.84 | 87 | 1015.6 |
| 20260901030105 | 27 | 0 | 0.0 | 0.0 | 0.00 | 2.84 | 2.84 | 85 | 1015.5 |
| 20260901024604 | 28 | 0 | 0.0 | 0.0 | 0.00 | 2.84 | 2.84 | 82 | 1015.2 |
| 20260901023054 | 28 | 0 | 0.0 | 0.0 | 0.00 | 2.84 | 2.84 | 81 | 1015.0 |
| 20260901021636 | 28 | 0 | 0.0 | 0.0 | 0.00 | 2.84 | 2.84 | 81 | 1014.8 |
| 20260901020115 | 28 | 0 | 0.0 | 3.2 | 0.00 | 2.84 | 2.84 | 80 | 1014.6 |
| 20260901014559 | 28 | 0 | 0.0 | 3.2 | 0.00 | 2.84 | 2.84 | 79 | 1014.5 |
| 20260901013109 | 28 | 138 | 0.0 | 3.2 | 0.00 | 2.84 | 2.84 | 78 | 1014.4 |
| 20260901011603 | 29 | 0 | 0.0 | 3.2 | 0.00 | 2.84 | 2.84 | 76 | 1014.5 |
| 20260901010058 | 29 | 0 | 0.0 | 3.2 | 0.00 | 2.84 | 2.84 | 75 | 1014.5 |
| 20260901004608 | 30 | 0 | 0.0 | 3.2 | 0.00 | 2.84 | 2.84 | 74 | 1014.6 |
| 20260901003123 | 30 | 169 | 0.0 | 3.2 | 0.00 | 2.84 | 2.84 | 74 | 1014.5 |
| 20260901001613 | 30 | 197 | 1.6 | 4.8 | 0.00 | 2.84 | 2.84 | 74 | 1014.6 |
| 20260901000113 | 30 | 196 | 0.0 | 3.2 | 0.00 | 2.84 | 2.84 | 73 | 1014.6 |
| 20260831234606 | 30 | 144 | 0.0 | 3.2 | 0.00 | 2.84 | 2.84 | 72 | 1014.6 |
| 20260831233105 | 30 | 352 | 0.0 | 3.2 | 0.00 | 2.84 | 2.84 | 72 | 1014.7 |
| 20260831231608 | 30 | 273 | 0.0 | 3.2 | 0.00 | 2.84 | 2.84 | 72 | 1014.8 |
| 20260831230059 | 30 | 0 | 0.0 | 3.2 | 0.00 | 2.84 | 2.84 | 73 | 1014.8 |
| 20260831224556 | 30 | 94 | 1.6 | 4.8 | 0.00 | 2.84 | 2.84 | 74 | 1014.8 |
| 20260831223104 | 30 | 223 | 0.0 | 3.2 | 0.00 | 2.84 | 2.84 | 75 | 1015.0 |
| 20260831221604 | 30 | 0 | 0.0 | 3.2 | 0.00 | 2.84 | 2.84 | 75 | 1014.9 |
| 20260831220114 | 30 | 213 | 0.0 | 3.2 | 0.00 | 2.84 | 2.84 | 77 | 1014.8 |
| 20260831214554 | 30 | 0 | 0.0 | 3.2 | 0.00 | 2.84 | 2.84 | 77 | 1015.1 |
| 20260831213101 | 29 | 0 | 0.0 | 0.0 | 0.00 | 2.84 | 2.84 | 77 | 1015.3 |
| 20260831211611 | 28 | 208 | 0.0 | 3.2 | 0.00 | 2.84 | 2.84 | 76 | 1015.5 |
| 20260831210057 | 27 | 348 | 1.6 | 4.8 | 0.00 | 2.84 | 2.84 | 77 | 1015.9 |
| 20260831204604 | 27 | 30 | 4.8 | 16.1 | 0.00 | 2.84 | 2.84 | 76 | 1016.1 |
| 20260831203102 | 29 | 98 | 1.6 | 4.8 | 0.03 | 2.84 | 2.84 | 77 | 1016.4 |
| 20260831201609 | 30 | 145 | 1.6 | 9.7 | 2.57 | 2.84 | 2.84 | 74 | 1016.1 |
| 20260831200108 | 29 | 227 | 1.6 | 9.7 | 2.57 | 2.84 | 2.84 | 77 | 1016.0 |
| 20260831194635 | 28 | 222 | 1.6 | 8.0 | 2.57 | 2.84 | 2.84 | 83 | 1016.5 |
| 20260831193102 | 27 | 58 | 6.4 | 22.5 | 2.54 | 2.82 | 2.82 | 82 | 1016.5 |
| 20260831191559 | 31 | 311 | 1.6 | 6.4 | 0.00 | 0.28 | 0.28 | 70 | 1016.6 |
| 20260831190120 | 31 | 221 | 4.8 | 8.0 | 0.00 | 0.28 | 0.28 | 70 | 1016.5 |
| 20260831184634 | 31 | 265 | 3.2 | 11.3 | 0.00 | 0.28 | 0.28 | 70 | 1016.6 |
| 20260831183108 | 32 | 238 | 3.2 | 8.0 | 0.00 | 0.28 | 0.28 | 71 | 1016.9 |
| 20260831181603 | 31 | 175 | 1.6 | 4.8 | 0.00 | 0.28 | 0.28 | 72 | 1017.1 |
| 20260831180107 | 30 | 0 | 0.0 | 3.2 | 0.28 | 0.28 | 0.28 | 77 | 1017.4 |
| 20260831174612 | 29 | 260 | 1.6 | 4.8 | 0.28 | 0.28 | 0.28 | 83 | 1017.5 |
| 20260831173108 | 28 | 0 | 0.0 | 3.2 | 0.28 | 0.28 | 0.28 | 82 | 1017.6 |
| 20260831171603 | 27 | 240 | 1.6 | 3.2 | 0.28 | 0.28 | 0.28 | 85 | 1017.8 |
| 20260831170059 | 27 | 222 | 1.6 | 8.0 | 0.00 | 0.00 | 0.00 | 76 | 1017.8 |
| 20260831164606 | 29 | 257 | 1.6 | 11.3 | 0.00 | 0.00 | 0.00 | 78 | 1018.0 |
| 20260831163105 | 30 | 40 | 1.6 | 4.8 | 0.00 | 0.00 | 0.00 | 75 | 1017.9 |
| 20260831161606 | 30 | 44 | 1.6 | 9.7 | 0.00 | 0.00 | 0.00 | 73 | 1017.8 |
| 20260831160105 | 31 | 39 | 4.8 | 12.9 | 0.00 | 0.00 | 0.00 | 72 | 1017.8 |
| 20260831154622 | 30 | 56 | 1.6 | 6.4 | 0.00 | 0.00 | 0.00 | 72 | 1017.7 |
| 20260831153104 | 31 | 56 | 1.6 | 9.7 | 0.00 | 0.00 | 0.00 | 72 | 1017.5 |
| 20260831151602 | 31 | 26 | 3.2 | 6.4 | 0.00 | 0.00 | 0.00 | 74 | 1017.7 |
| 20260831150104 | 30 | 32 | 3.2 | 8.0 | 0.00 | 0.00 | 0.00 | 78 | 1017.5 |
| 20260831144633 | 29 | 327 | 1.6 | 8.0 | 0.00 | 0.00 | 0.00 | 80 | 1017.4 |
| 20260831143100 | 29 | 352 | 1.6 | 6.4 | 0.00 | 0.00 | 0.00 | 81 | 1017.5 |
| 20260831141601 | 28 | 352 | 3.2 | 6.4 | 0.00 | 0.00 | 0.00 | 83 | 1017.5 |
| 20260831134605 | 26 | 332 | 1.6 | 3.2 | 0.00 | 0.00 | 0.00 | 91 | 1017.2 |
| 20260831133103 | 25 | 0 | 0.0 | 0.0 | 0.00 | 0.00 | 0.00 | 93 | 1017.0 |
| 20260831131603 | 25 | 0 | 0.0 | 0.0 | 0.00 | 0.00 | 0.00 | 94 | 1016.8 |
| 20260831130116 | 25 | 0 | 0.0 | 0.0 | 0.00 | 0.00 | 0.00 | 94 | 1016.6 |
| 20260831124603 | 24 | 0 | 0.0 | 0.0 | 0.00 | 0.00 | 0.00 | 94 | 1016.4 |
| 20260831123104 | 24 | 0 | 0.0 | 0.0 | 0.00 | 0.00 | 0.00 | 94 | 1016.3 |
| 20260831121605 | 24 | 0 | 0.0 | 0.0 | 0.00 | 0.00 | 0.00 | 93 | 1016.0 |
| 20260831120110 | 24 | 0 | 0.0 | 0.0 | 0.00 | 0.00 | 0.00 | 93 | 1016.0 |
| 20260831114606 | 25 | 0 | 0.0 | 3.2 | 0.00 | 0.00 | 0.00 | 94 | 1015.7 |
| 20260831113106 | 24 | 0 | 0.0 | 3.2 | 0.00 | 0.00 | 0.00 | 94 | 1015.6 |
| 20260831111612 | 24 | 0 | 0.0 | 0.0 | 0.00 | 0.00 | 0.00 | 94 | 1015.7 |